Location: Lynch Observatory
(39.9540°N, 75.1861°W)
Time: 21:29:39
(UTC-04:00)

N. Korean satellite - Visible Passes

Search period start: 18 October 2017 00:00
Search period end: 28 October 2017 00:00
Orbit: 459 x 517 km, 97.2° (Epoch: 18 October)

Date Brightness Start Highest point End Pass type
(mag) Time Alt. Az. Time Alt. Az. Time Alt. Az.
18 Oct 7.7 19:24:40 10° S 19:28:05 46° W 19:31:29 10° NNW visible
19 Oct 6.4 19:01:13 10° SSE 19:04:44 81° E 19:08:15 10° N visible
20 Oct 7.0 18:38:13 10° SE 18:41:28 37° ENE 18:44:43 10° N visible
20 Oct 10.1 20:13:57 10° WSW 20:15:09 11° W 20:16:20 10° WNW visible
21 Oct 9.2 19:48:52 10° SSW 19:51:40 22° W 19:54:27 10° NW visible
22 Oct 7.7 19:24:52 10° S 19:28:15 45° W 19:31:36 10° NNW visible
23 Oct 6.4 19:01:23 10° SSE 19:04:53 82° ENE 19:08:22 10° N visible
24 Oct 7.0 18:38:21 10° SE 18:41:35 37° ENE 18:44:50 10° N visible
24 Oct 10.1 20:14:15 10° WSW 20:15:18 11° W 20:16:19 10° WNW visible
25 Oct 9.2 19:49:02 10° SSW 19:51:47 22° W 19:54:32 10° NW visible
26 Oct 7.7 19:25:01 10° S 19:28:21 44° W 19:31:41 10° NNW visible
27 Oct 10.0 06:53:53 10° ENE 06:55:51 14° E 06:57:50 10° SE visible
27 Oct 6.4 19:01:30 10° SSE 19:04:58 83° ENE 19:08:26 10° N visible
